Regional Weather Roundup
Issued by NWS

Home | Current Version | Previous Version | Graphics & Text | Print | Product List | Glossary On
Versions: 1 2 3 4 5 6 7 8 9 10 11 12 13 14 15 16 17 18 19 20 21 22 23 24 25 26 27 28 29 30 31 32 33 34 35 36 37 38 39 40 41 42 43 44 45 46 47 48 49 50
000
ASUS43 KMKX 211000
RWRWI

WISCONSIN REGIONAL WEATHER ROUNDUP
NATIONAL WEATHER SERVICE MILWAUKEE/SULLIVAN WI
500 AM CDT THU SEP 21 2017

NOTE: "FAIR" INDICATES FEW OR NO CLOUDS BELOW 12,000 FEET WITH NO
SIGNIFICANT WEATHER AND/OR OBSTRUCTIONS TO VISIBILITY.

WIZ001-002-006>008-014>016-023>028-211100-
NORTHWEST WISCONSIN

CITY           SKY/WX    TMP DP  RH WIND       PRES   REMARKS
SUPERIOR ARPT  FOG       39  39 100 CALM      30.01F VSB 3/4
ASHLAND        CLEAR     45  44  97 CALM      30.03R
HAYWARD        CLEAR     41  39  93 CALM      30.04R
SIREN          PTCLDY    41  40  98 CALM      30.02R FOG
CUMBERLAND     CLEAR     45  43  93 CALM      30.02R
RICE LAKE      FOG       45  45  99 CALM      30.03S VSB 3/4
CHETEK         CLEAR     50  50 100 CALM      30.02R
LADYSMITH      CLEAR     49  48  97 CALM      30.03R FOG
EAU CLAIRE     CLEAR     49  49 100 CALM      29.99R FOG
MENOMONIE      CLEAR     51  50  97 CALM      30.00S
NEW RICHMOND   CLEAR     46  46  99 NE3       30.02R FOG
OSCEOLA        CLEAR     44  44 100 CALM      30.03S
$$

WIZ003>005-009-010-017-018-211100-
NORTH CENTRAL WISCONSIN

CITY           SKY/WX    TMP DP  RH WIND       PRES   REMARKS
MANITOWISH WTR FOG       43  43 100 CALM      30.03R VSB 1/4
ARBOR VITAE    FOG       52  51  95 CALM      30.02R VSB 1
WOODRUFF       FOG       52  51  95 CALM      30.02R VSB 1
RHINELANDER    CLEAR     54  54 100 CALM      30.03R
EAGLE RIVER    FOG       49  49 100 CALM      30.02S VSB 1/4
LAND O LAKES   FOG       47  47 100 CALM      30.04S VSB 1/4
PHILLIPS       FOG       44  44 100 CALM      30.02R VSB 1
TOMAHAWK       FOG       50  49  97 CALM      30.02S VSB 1/4
MEDFORD        CLEAR     51  51  97 NE3       30.00R
MERRILL        NOT AVBL
$$

WIZ029-030-035-036-043>047-211100-
CENTRAL WISCONSIN

CITY           SKY/WX    TMP DP  RH WIND       PRES   REMARKS
WAUSAU         CLEAR     58  58 100 N5        29.99R FOG
MOSINEE        CLEAR    N/A N/A N/A N3        30.01R
MARSHFIELD     CLEAR     60  56  86 NE7       29.99R
STEVENS POINT  FOG       61  61 100 N3        29.98S VSB<1/4
WAUPACA        FOG       68  68  98 N3        29.96F VSB 1/4
WAUTOMA        FOG       68  68 100 N5        29.95  VSB 1/2
WISC RAPIDS    CLEAR     62  61  96 N7        29.97F
CAMP DOUGLAS   CLEAR     59  59 100 W6        29.96S FOG
$$

WIZ011>013-019>022-031-037>040-048>050-211100-
NORTHEAST WISCONSIN

CITY           SKY/WX    TMP DP  RH WIND       PRES   REMARKS
ANTIGO         CLEAR     59  59 100 NE7       30.01R
SHAWANO        CLOUDY    67  65  96 N3        29.97S
OCONTO         CLOUDY    67  66  97 CALM      29.97R
STURGEON BAY   CLOUDY    67  66  97 N3        29.99R
GREEN BAY      CLOUDY    64  64 100 N5        29.96R FOG
MANITOWOC      NOT AVBL
APPLETON       CLOUDY    66  66 100 NW9       29.94F
CLINTONVILLE   NOT AVBL
OSHKOSH        MOCLDY    68  67  96 CALM      29.96R
$$

WIZ032>034-041-042-053>061-211100-
SOUTHWEST WISCONSIN

CITY           SKY/WX    TMP DP  RH WIND       PRES   REMARKS
LA CROSSE      NOT AVBL
SPARTA         FOG       55  55 100 CALM      29.98S VSB 1/4
VIROQUA        CLEAR     61  61 100 N5        29.97S
BOSCOBEL       CLOUDY    70  68  93 CALM      29.96R FOG
PRAIRIE DU CHI CLOUDY    67  65  94 CALM      29.96R FOG
PLATTEVILLE    CLOUDY    67  67 100 CALM      29.97S
$$

WIZ056-057-062-063-064-067-068-211100-
SOUTH CENTRAL WISCONSIN

CITY           SKY/WX    TMP DP  RH WIND       PRES   REMARKS
REEDSBURG      FOG       66  66 100 W3        29.94F VSB 3/4
BARABOO/DELLS  CLOUDY    68  67  96 CALM      29.95S FOG
LONE ROCK      CLOUDY    70  70 100 W3        29.95R
MINERAL POINT  CLOUDY    70  70 100 CALM      29.97R
MADISON        CLOUDY    72  70  93 SW6       29.95R
MIDDLETON      CLOUDY    70  70 100 S6        29.95R VSB 1/4
WATERTOWN      CLOUDY    67  67 100 S6        29.95R
MONROE         CLOUDY    68  64  88 SW5       29.97R
JANESVILLE     CLOUDY    70  70 100 CALM      29.95R
$$

WIZ051-052-058>065-066-070>072-211100-
SOUTHEAST WISCONSIN

CITY           SKY/WX    TMP DP  RH WIND       PRES   REMARKS
MILWAUKEE      CLOUDY    71  66  84 SW3       29.95R
WAUKESHA       MOCLDY    68  64  88 S3        29.98R
MILWAUKEE/TIMM CLOUDY    68  63  83 S5        29.96R
RACINE         CLOUDY    67  67 100 SW3       29.96R
BURLINGTON     CLOUDY    67  67 100 CALM      29.96R
KENOSHA        MOCLDY    69  65  86 CALM      29.96R
FOND DU LAC    CLOUDY    69  65  86 N6        29.97R
SHEBOYGAN      CLOUDY    67  67 100 E3        29.98R
WEST BEND        N/A     66  66 100 CALM      29.95R FOG
JUNEAU         CLOUDY    66  66  98 CALM      29.96R FOG
$$

LSZ147-162-211100-
LAKE SUPERIOR

STATION/POSITION TIME  TEMP    WIND        PRES    WAVE
                       AIR SEA DIR/SP/G            HT/PER
                 (UTC) (F)     (DEG/KT/KT) (MB)    (FT/S)
W MID LAKE BUOY  0850   56 54  350/  2/  2 1016.0R   1
DEVILS ISLAND    0900   59     280/  3/  3 1016.4R
PORT WING        0730          160/  3/  5 1016.3R
SAXON HARBOR     0940   49     210/  5/  7 1016.3R
$$

LMZ867-665-643>646-211100-
LAKE MICHIGAN

STATION/POSITION TIME  TEMP    WIND        PRES    WAVE
                       AIR SEA DIR/SP/G            HT/PER
                 (UTC) (F)     (DEG/KT/KT) (MB)    (FT/S)
S GREEN BAY BUOY 0930   67 66  250/  2/  2 1014.3R
N MID LAKE BUOY  0850   67 65  340/  6/  8 1013.6R   3/ 6
NORTHPORT PIER   0940   66     340/  7/ 11 1014.6R
KEWAUNEE LAKESHO 0930   67      CALM  /  1 1014.0R
SHEBOYGAN LAKESH 0900   70     350/ 11/ 13 1013.4R
PORT WASHINGTON  0930   68     180/  5/  8 1014.6R
ATWATER BUOY     0809   68 67  190/  8/ 10 1013.7F
MILWAUKEE LAKESH 0950   71     240/  3/  4   N/A
S MID LAKE BUOY  0850   71 69  160/  8/  8 1013.5S   1/ 3
KENOSHA   LAKESH 0900   72     220/  5/  6 1013.9
$$

TC  - TEMPERATURE IN CELSIUS
VSB - VISIBILITY IN STATUTE MILES
WCI - WIND CHILL INDEX
HX  - HEAT INDEX




USA.gov is the U.S. government's official web portal to all federal, state and local government web resources and services.